Regional Weather Roundup
Issued by NWS Newport/Morehead, NC

Current Version | Previous Version | Text Only | Print | Product List | Glossary On
Versions: 1 2 3 4 5 6 7 8 9 10 11 12 13 14 15 16 17 18 19 20 21 22 23 24 25 26 27 28 29 30 31 32 33 34 35 36 37 38 39 40 41 42 43 44 45 46 47 48 49 50
000
ASUS42 KMHX 242010
RWRMHX
WEATHER ROUNDUP FOR EASTERN NORTH CAROLINA
NATIONAL WEATHER SERVICE NEWPORT/MOREHEAD CITY NC
400 PM EDT FRI OCT 24 2014

NOTE: "FAIR" INDICATES FEW OR NO CLOUDS BELOW 12,000 FEET
WITH NO SIGNIFICANT WEATHER AND/OR OBSTRUCTIONS TO VISIBILITY

NCZ015>017-031-032-045>047-102-103-242100-
NORTH COAST

CITY           SKY/WX    TMP DP  RH WIND       PRES   REMARKS
EDENTON        SUNNY     69  48  45 NW8       29.93S
ELIZABETH CITY SUNNY     71  49  45 W9        29.91F
KITTY HAWK     CLEAR     65  48  53 W6        29.90F
MANTEO         SUNNY     65  49  56 NW6       29.92F

$$

NCZ045>047-081-094-103-104-242100-
CENTRAL COAST

CITY           SKY/WX    TMP DP  RH WIND       PRES   REMARKS
FRISCO         SUNNY     65  50  58 NW6       29.94S
SWANQUARTER      N/A     68 N/A N/A W9G15     29.88F

$$

NCZ095-097-098-100-101-242100-
SOUTHERN COAST

CITY           SKY/WX    TMP DP  RH WIND       PRES   REMARKS
BEAUFORT       MOSUNNY   69  48  47 NW7       29.95F
CEDAR ISLAND     N/A     66 N/A N/A W7        29.97S
JACKSONVILLE   MOSUNNY   70  47  43 VRB6      29.95F
PINEY ISLAND   CLEAR     71  47  42 W8        29.94F
WILMINGTON     MOSUNNY   71  47  42 W5        29.96F


$$

NCZ011>013-027>030-043-044-078>080-089-090>093-098-242100-
COASTAL PLAIN

CITY           SKY/WX    TMP DP  RH WIND       PRES   REMARKS
AHOSKIE        SUNNY     67  44  42 CALM      29.94S
CLINTON        SUNNY     71  49  46 CALM      29.96F
ELIZABETHTOWN  SUNNY     69  46  42 CALM      29.97S
GOLDSBORO      MOSUNNY   71  49  46 VRB5      29.94F
GREENVILLE     SUNNY     70  45  40 CALM      29.97S
HAVELOCK       MOSUNNY   71  47  42 NW9       29.96F
KENANSVILLE    SUNNY     68  44  42 W3        29.97F
KINSTON        SUNNY     70  45  40 W3        29.96F
NEW BERN       MOSUNNY   72  48  42 W7        29.96F
RICHLANDS      MOSUNNY   70  45  40 W5        29.96F
ROCKY MOUNT    MOSUNNY   69  44  40 VRB3      29.96S
WASHINGTON     SUNNY     69  46  44 NW6       29.95S
WHITEVILLE     SUNNY     70  46  42 SE3       29.96F

$$

AMZ130-135-150-152-154-156-158-170-250-252-270-ANZ085-086-088-633-658-670-242100-
MARINE OBSERVATIONS

STATION/POSITION TIME  TEMP    WIND        PRES    WAVE   SWELL
                       AIR SEA DIR/SP/G            HT/PER HT/PER
                 (UTC) (F)     (DEG/KT/KT) (MB)    (FT/S) (FT/S)
CHESAPEAKE LIGHT 1900   62     310/ 16/ 18 1013.1
64 E VA BEACH    2000   62 67  320/ 16/ 19 1012.0    6/ 5   3/ 9
DUCK             2000   64 66  340/  2/  4 1012.1
2 E DUCK         1900                        N/A     4/ 6
10 NE DUCK       1900      68                N/A     4/ 6   2/11
OREGON INLET     2000   64 63  310/  9/ 11 1012.9
13E OREGON INLT  1900      69                N/A     5/ 7   2/11
HATTERAS CG      2000   64 64  290/ 12/ 13 1014.0
DIAMOND BUOY     2000   63     310/ 12/ 14 1014.0    4/10   3/10
17 S OCRACOKE    1900          VRB 14/ 16  1014.4
CAPE LOOKOUT     1900   67     280/  4/  5 1014.7
BEAUFORT LAB     2000   68 67  280/  4/  9 1013.5
30 SE NEW RIVER  2000   66 75  310/  6/ 10 1014.4    3/11   3/11
5 SE WRIGHTSVLE  2000   63 72  180/  4/  6   N/A
225 S CAPE HAT   1902   73 78  330/  6/ 10 1014.3    5/10   5/10
41 SE CHARLESTON 2000   68 78  350/  6/  8 1015.2    3/11   2/11

$$



USA.gov is the U.S. government's official web portal to all federal, state and local government web resources and services.